SL-16 R/B (22220 NORAD) Tracking and Keplerian Element Data

This shows tracking and keplerian element data for the satellite.

Feedback or suggestion? Click here.




ElementValue
Catalog22220
NameSL-16 R/B
Epoch Orbit34809
Epoch Day349.23033039
Epoch Year2018
RAAN349.8293
Inclination70.9998
Eccentricity0.0012346
Argument of Perigee171.9656
Mean Anonmoly263.2805
Mean Motion14.16437601
Decay Rate-2.44E-06
L11 22220U 92076B 18349.23033039 -.00000244 00000-0 -98693-4 0 9991
L22 22220 70.9998 349.8293 0012346 171.9656 263.2805 14.16437601348094

Live tracking and technical data element details for SL-16 R/B (NORAD 22220). SL-16 R/B can be tracked NOW for your location showing map with azimuth and elevation plus other details from your city location.

Track the satellite on the map from your city or location and see movement details for azimuth, elevation, latitude, longitude, range, height, and movement on the map or in text.







IsCatalogInMostPopularTable: catalog: 22220, numindb: 37
Update: records affected: 1



GetName: 22220 SL-16 R/B

Hit Count: updated at: Sat, 15 Dec 2018 13:37:36 GMT